Home > Weather > Bahía Blanca > Past weeks

Flag for Argentina Weather for the Past 2 Weeks in Bahía Blanca, Buenos Aires, Argentina

Now
73 °F

Thunderstorms. Mostly cloudy.


Feels Like: 70 °F
Forecast: 65 / 82 °F
Wind: 9 mph from Northwest

Location: Mar Del Plata Aerodrome

Current Time: Feb 12, 2016 at 11:40:49 PM

Latest Report: Feb 12, 2016 at 11:00 PM


Visibility: 5 mi

Pressure: 29.65 "Hg

Humidity: 94%

Dew point: 72 °F

Location of Bahía BlancaLocation

Historic Weather in Bahía Blanca — Graph

°F

Bahía Blanca Temperature Yesterday

Maximum temperature yesterday: 82 °F (at 3:00 PM)
Minimum temperature yesterday: 59 °F (at 5:00 AM)
Average temperature yesterday: 71 °F

High & Low Weather Summary for the Past Weeks

 TemperatureHumidityPressure
High90 °F (Feb 5, 4:00 PM)100% (Jan 30, 3:00 AM)30.30 "Hg (Jan 30, 3:00 AM)
Low54 °F (Jan 31, 7:00 AM)43% (Feb 5, 4:00 PM)29.62 "Hg (Feb 12, 6:00 PM)
Average69 °F83%29.96 "Hg
* Reported Jan 28 9:00 PM — Feb 12 9:00 PM, Bahía Blanca, Weather by CustomWeather, © 2016

Note: Actual official high and low records may vary slightly from our data, if they occured in-between our weather recording intervals... More about our weather records

Advertising

Bahía Blanca Weather History for the Previous 24 Hours

 ConditionsComfort  
Time TempWeatherWind HumidityBarometerVisibility
9:00 PM
Fri, Feb 12
75 °FRain showers. Mostly cloudy.8 mph89%29.62 "Hg5 mi
8:00 PM75 °FMostly cloudy.7 mph89%29.62 "HgN/A
7:00 PM77 °FPassing clouds.6 mph89%29.65 "HgN/A
6:00 PM77 °FPartly sunny.8 mph89%29.62 "HgN/A
4:00 PM77 °FThunderstorms. Scattered clouds.10 mph94%29.68 "Hg6 mi
3:00 PM84 °FBroken clouds.16 mph84%29.68 "HgN/A
2:00 PM82 °FPartly sunny.10 mph89%29.68 "HgN/A
1:00 PM81 °FMostly cloudy.12 mph89%29.71 "HgN/A
12:00 PM81 °FCloudy.16 mph79%29.74 "HgN/A
11:00 AM81 °FPartly sunny.17 mph84%29.74 "HgN/A
10:00 AM77 °FScattered clouds.17 mph83%29.74 "HgN/A
9:00 AM73 °FBroken clouds.13 mph94%29.74 "HgN/A
8:00 AM72 °FScattered clouds.8 mph94%29.74 "HgN/A
7:00 AM70 °FScattered clouds.7 mph94%29.74 "HgN/A
6:00 AM70 °FScattered clouds.7 mph94%29.74 "Hg5 mi
5:00 AM68 °FPassing clouds.7 mph94%30.04 "Hg4 mi
4:00 AM70 °FThunderstorms. Partly cloudy.7 mph94%29.74 "Hg4 mi
3:00 AM68 °FThunderstorms. Mostly cloudy.6 mph100%29.71 "Hg2 mi
2:00 AM66 °FStrong thunderstorms. Mostly cloudy.9 mph94%29.74 "Hg1 mi
1:00 AM66 °FThunderstorms. Passing clouds.6 mph94%29.77 "Hg4 mi
11:00 PM
Thu, Feb 11
72 °FThunderstorms. Passing clouds.6 mph88%29.74 "HgN/A
Weather by CustomWeather, © 2016

See weather overviewHow to use our weather pages